Theta_e
355 354 351 350 348 345 342 341 345 349 351 350 349 350 346 348 350 351 353 360 358 359 360 361 358 356 354 351 349 349 348 347 345 345 345 344 344 344 344 345 345 347 348
355 352 351 350 349 347 344 342 340 347 350 349 347 350 350 350 352 346 347 355 356 356 357 359 358 356 352 349 350 348 348 347 346 345 344 343 343 343 342 342 343 343 345
353 357 351 349 347 347 345 344 343 343 346 346 346 348 348 350 345 352 350 353 352 355 356 358 357 354 353 349 349 348 347 346 345 343 340 339 340 339 339 339 338 339 340
354 355 350 348 348 350 347 345 343 340 341 340 344 348 348 354 354 352 351 350 352 350 355 358 356 354 353 351 349 348 347 346 343 339 337 335 336 336 336 336 337 337 338
342 347 352 350 352 350 349 347 344 345 342 345 343 343 344 347 355 350 352 352 353 352 349 355 354 353 352 353 350 349 346 345 341 338 334 332 330 332 333 335 336 336 337
331 333 335 336 341 342 345 347 350 353 353 350 348 346 349 350 353 353 351 352 351 351 351 348 349 348 351 353 352 349 346 343 339 338 336 332 331 329 331 334 334 334 335
325 326 324 326 328 327 329 332 335 340 347 351 347 346 347 348 349 348 351 351 349 349 348 348 345 342 347 351 350 349 345 339 338 336 334 333 331 330 331 333 332 332 332
322 320 320 317 318 319 322 325 326 325 331 332 336 339 334 337 342 351 350 349 348 347 348 346 344 343 344 346 345 347 345 341 337 334 334 332 330 330 333 332 331 331 330
320 323 322 319 317 316 316 318 322 321 318 323 329 331 331 331 335 340 341 332 331 342 344 346 345 346 343 342 343 345 344 342 336 334 332 332 331 333 333 332 331 329 329
320 320 319 316 316 317 317 316 319 318 319 315 320 332 331 338 331 328 337 338 337 341 343 342 342 344 344 343 344 342 340 338 337 335 332 332 332 333 332 331 328 326 325
317 316 314 314 314 314 314 313 314 315 316 315 316 317 321 328 335 332 327 332 335 339 339 342 343 343 345 343 339 338 336 334 334 334 334 334 333 332 331 328 326 325 324
311 313 312 312 311 311 311 311 312 313 313 314 315 316 317 320 323 328 329 331 332 334 335 336 337 341 343 343 344 338 333 330 330 330 331 333 333 331 329 326 325 323 322
308 309 309 309 308 308 308 308 308 309 309 310 312 313 315 317 321 323 326 330 331 336 332 333 334 336 339 340 342 336 333 328 327 327 327 328 330 329 326 324 322 321 321
306 308 307 306 306 306 306 306 305 305 306 306 307 310 312 313 315 319 319 322 325 331 335 330 332 332 333 335 340 333 328 326 325 325 324 326 326 326 324 320 318 318 318
306 306 305 304 305 305 304 304 303 303 303 303 304 305 306 309 314 316 319 323 321 318 327 333 332 331 332 334 334 328 325 327 325 323 323 322 322 320 318 317 315 315 315
307 305 302 302 302 302 302 301 300 299 299 299 301 301 303 305 307 311 312 315 323 321 317 331 336 330 330 331 333 326 323 325 324 322 320 319 319 316 316 314 313 313 313
307 305 304 302 300 300 300 299 298 298 298 297 298 298 298 300 301 305 310 313 313 320 318 325 331 328 328 327 327 327 325 321 320 319 318 317 315 315 313 312 313 313 314
305 305 305 303 301 301 300 298 298 297 296 295 295 296 295 297 297 302 306 309 312 316 316 316 331 325 325 329 324 320 320 318 316 318 317 315 314 313 312 312 312 314 313
304 305 304 302 301 300 300 300 298 297 295 295 295 295 295 295 295 297 302 306 311 315 318 320 324 319 322 321 319 316 316 314 314 317 315 315 313 312 311 311 314 313 311
303 303 303 302 301 300 298 298 296 295 295 294 296 296 295 296 296 296 298 302 307 311 316 319 321 315 318 316 317 314 313 314 313 314 314 311 311 312 312 313 314 314 312
302 303 303 301 301 300 298 297 295 294 294 293 295 295 295 298 303 303 301 300 305 309 314 315 318 315 314 312 312 313 313 312 312 309 306 306 306 308 309 313 314 316 313
301 302 301 300 299 298 299 298 296 294 293 293 293 294 294 297 299 302 304 306 306 306 310 314 314 311 312 314 315 313 312 309 306 314 306 304 307 306 309 310 312 312 309
300 301 300 300 298 297 297 297 296 293 292 293 293 293 293 296 299 299 301 306 307 307 309 310 315 314 312 314 315 313 312 310 308 311 309 307 307 309 311 313 311 309 306
299 300 299 299 298 297 297 296 295 293 292 293 294 294 293 296 297 299 300 309 309 310 309 310 311 318 316 317 316 316 313 312 312 310 310 304 309 308 311 310 308 306 305
298 299 299 298 297 296 297 295 293 291 291 292 294 295 295 294 297 298 306 307 310 311 312 310 310 309 306 306 311 313 310 308 304 306 309 307 308 308 311 307 307 306 305
299 300 297 297 297 295 296 295 292 291 290 291 294 294 296 295 295 297 303 307 307 305 306 306 306 306 308 307 307 309 309 306 306 305 309 306 307 308 304 310 306 305 304
Wind_Speed
3 4 4 4 5 5 5 5 5 5 3 5 8 2 12 2 5 4 2 11 11 11 10 10 10 9 10 9 8 9 8 8 8 7 5 5 4 3 3 3 1 6 10
3 5 4 4 4 4 5 5 5 4 4 5 7 7 7 5 6 6 5 8 15 13 11 12 14 13 12 11 11 10 9 8 8 7 7 5 5 4 3 2 2 2 2
3 5 4 5 5 5 7 5 5 5 5 6 8 8 8 2 5 5 4 7 7 11 13 12 13 14 14 14 13 13 12 11 9 8 6 5 4 3 3 3 1 1 1
9 3 4 5 5 5 4 4 5 5 5 5 5 5 5 3 2 3 3 5 7 7 9 14 15 15 15 15 15 13 12 11 11 10 8 7 5 3 1 1 2 2 0
16 11 8 8 11 6 5 5 6 5 5 5 6 7 6 5 5 6 7 6 3 9 7 14 16 16 17 18 18 17 16 15 13 11 11 8 5 5 4 2 3 3 2
13 11 10 13 13 10 10 12 12 6 5 6 9 9 5 5 4 5 6 4 5 10 11 12 10 10 17 20 21 22 21 19 16 14 12 11 8 6 5 5 4 1 3
10 11 8 10 10 10 13 14 9 15 10 8 10 9 8 8 9 7 5 6 6 7 6 12 9 8 9 20 19 18 19 21 19 14 11 11 11 8 7 5 3 2 1
10 8 8 8 10 9 11 11 11 8 9 11 8 12 9 8 6 7 3 2 3 4 8 13 13 13 11 9 11 18 19 19 18 16 13 11 10 10 10 7 4 3 1
11 9 5 6 7 7 8 10 9 9 8 10 12 6 5 4 4 3 2 3 7 8 6 12 13 11 12 10 12 16 19 18 18 17 15 12 12 11 10 8 5 3 3
8 9 11 12 12 10 7 7 8 9 9 11 10 7 13 11 4 6 2 5 10 12 7 5 7 10 12 10 16 20 21 19 18 17 15 14 14 12 10 8 6 5 3
10 13 14 13 11 9 11 13 12 9 6 9 9 9 13 11 12 9 11 5 6 6 5 5 5 5 7 11 8 15 22 19 17 15 14 14 13 12 11 9 7 5 6
9 12 14 12 11 11 12 12 12 13 12 11 9 9 9 8 10 10 11 12 10 7 9 10 6 6 5 7 11 19 24 22 17 14 13 13 13 12 11 9 7 7 5
9 12 14 14 12 13 13 13 14 14 13 13 13 11 10 9 9 10 12 14 12 9 7 10 11 9 7 4 10 16 27 24 19 15 13 12 11 12 11 9 7 7 8
9 12 12 12 13 13 12 13 11 11 14 13 17 14 12 11 11 10 11 13 15 12 10 7 7 7 5 6 7 23 15 22 19 17 14 12 11 11 8 6 7 8 10
9 11 12 12 12 13 13 13 10 13 14 14 15 16 14 14 13 12 12 10 12 16 14 13 10 11 9 7 9 12 14 20 19 16 15 13 13 10 9 6 7 9 10
7 9 12 13 13 13 13 13 11 12 13 13 11 17 16 13 15 14 14 14 12 11 17 12 8 5 13 11 15 13 14 20 21 18 16 15 15 12 9 7 7 11 11
8 8 8 11 14 13 14 15 15 15 15 15 16 17 19 18 15 15 15 13 14 11 15 14 7 6 12 10 12 10 14 12 11 19 18 16 15 12 10 7 8 11 12
11 12 9 10 14 12 13 16 15 17 18 19 20 19 19 16 19 18 15 18 16 15 13 20 15 9 9 12 15 12 11 9 9 17 18 16 14 12 10 8 8 10 10
12 11 11 12 12 14 14 13 16 18 18 18 19 20 21 20 21 17 18 17 16 14 14 14 14 2 2 6 10 7 10 9 8 17 19 17 15 13 10 9 11 10 9
13 13 10 12 13 16 16 14 18 19 20 20 20 19 21 21 22 21 19 20 17 16 15 14 12 5 7 6 10 11 7 6 8 8 12 12 13 13 12 12 12 11 10
13 13 11 11 12 13 12 16 20 20 21 23 20 19 18 25 36 32 17 19 19 16 14 12 14 10 8 8 13 9 10 8 7 5 7 7 6 6 6 13 11 13 10
13 14 11 11 13 11 20 23 27 20 20 20 20 21 21 29 26 35 35 37 29 19 17 12 13 9 13 11 12 12 12 12 11 7 7 7 8 7 8 8 13 13 14
14 14 12 10 11 14 24 22 31 17 19 19 21 20 21 18 28 24 30 36 32 37 34 18 15 14 17 15 15 15 15 14 11 7 8 6 8 8 8 9 15 16 14
13 13 12 14 12 11 21 22 29 19 17 20 21 22 23 24 27 26 21 17 18 20 24 20 20 16 15 17 19 20 20 14 4 6 8 4 5 4 4 5 18 17 15
11 11 11 13 14 14 20 23 25 18 17 20 19 20 23 26 36 29 14 13 12 10 8 24 21 12 13 12 8 7 8 12 7 6 6 4 4 4 4 5 8 15 15
9 8 12 12 16 15 19 22 24 14 17 16 19 20 28 34 40 40 10 9 11 4 6 11 12 15 17 15 16 7 3 7 8 6 7 4 4 5 3 4 6 6 5
Wind_Direction
261 292 313 324 325 321 312 307 281 291 317 284 271 257 226 273 111 47 147 176 180 164 173 174 168 160 155 152 148 139 141 139 137 133 127 122 117 113 121 103 159 248 238
308 324 312 289 277 274 279 292 298 321 319 321 307 298 285 269 135 161 228 177 188 175 169 177 166 166 167 166 158 157 153 147 145 141 139 138 136 135 115 115 119 78 101
263 311 301 292 296 300 306 311 300 284 269 257 260 253 253 153 229 183 187 186 178 181 168 178 174 175 172 177 173 168 163 160 161 151 147 138 138 139 147 162 162 188 246
4 269 227 263 280 287 296 292 281 279 282 286 272 279 291 247 179 127 303 254 168 168 178 185 182 181 180 180 182 178 174 170 166 160 160 151 152 152 170 231 215 191 255
9 356 355 350 342 317 300 292 286 274 263 261 261 253 253 265 223 202 205 226 193 157 178 189 187 187 186 184 187 185 182 175 173 170 167 166 168 175 178 196 299 279 241
5 8 6 5 357 348 354 353 320 300 305 295 297 295 286 255 246 214 213 225 222 172 183 179 181 197 195 190 191 190 184 182 179 181 178 175 180 194 200 183 183 266 301
9 17 7 1 12 2 349 348 347 350 318 312 294 275 275 260 249 231 195 207 224 201 174 172 179 195 201 200 198 199 195 182 181 183 185 183 182 184 200 205 179 165 263
23 7 15 13 11 357 349 350 359 343 321 356 324 306 278 286 283 231 202 294 238 250 177 179 187 196 187 193 197 200 196 198 193 185 182 191 190 190 186 189 204 175 207
355 355 41 19 10 14 350 343 345 347 318 320 322 322 309 265 341 354 322 206 280 273 245 194 200 202 183 184 190 199 198 200 199 191 191 193 196 192 185 184 184 215 180
350 6 23 14 2 350 336 331 345 335 330 317 323 318 319 310 283 298 281 230 242 258 246 252 209 183 187 187 195 191 193 194 200 198 193 195 200 188 193 187 192 196 232
4 25 14 1 353 345 338 340 333 328 318 306 311 311 308 308 301 287 275 248 263 238 264 264 253 220 193 186 164 182 184 189 193 195 193 195 200 199 197 201 204 217 265
5 19 1 2 349 342 339 333 327 324 324 308 293 295 295 297 304 304 288 282 253 237 236 250 250 235 214 197 188 181 182 183 184 180 191 190 201 204 203 211 216 247 258
5 4 2 358 352 347 340 336 332 326 321 317 312 305 298 287 290 290 290 283 265 262 226 220 227 231 231 220 207 168 176 177 174 178 188 194 195 202 201 212 240 266 282
357 8 360 355 346 343 342 338 331 323 321 315 308 301 295 287 287 274 265 288 293 260 244 228 206 224 242 228 196 166 172 173 171 175 182 185 189 203 210 218 253 268 281
358 4 360 349 343 346 342 340 333 329 328 322 314 306 303 305 302 290 275 248 257 274 270 236 228 202 208 227 183 166 164 169 172 172 172 175 196 195 196 221 252 271 275
5 355 353 350 347 343 342 338 337 328 318 318 314 310 304 304 300 289 280 286 261 263 272 273 263 182 194 201 183 170 162 166 168 167 170 180 195 195 196 213 249 266 269
350 357 358 351 346 340 337 340 335 331 326 317 310 304 298 295 288 285 283 274 267 263 269 275 252 226 188 181 169 169 154 165 168 171 174 190 198 200 194 208 234 255 261
350 339 353 354 344 342 326 336 337 330 323 315 310 299 294 291 282 281 274 273 265 260 255 265 250 205 193 201 168 154 160 159 163 185 180 193 201 197 194 201 234 249 251
347 340 357 341 349 342 339 333 337 327 319 310 303 299 295 290 285 277 273 266 271 264 255 252 257 207 65 169 148 143 161 155 166 184 189 193 197 196 190 210 229 231 224
341 336 347 344 350 338 337 347 334 325 317 315 306 299 298 287 276 276 269 265 261 263 256 257 234 220 196 165 168 160 163 177 180 173 186 185 193 196 188 204 217 213 205
337 335 343 357 346 342 339 345 336 326 321 319 313 306 300 295 288 282 263 260 259 255 250 246 236 210 199 175 177 181 182 179 169 156 175 188 182 191 197 214 212 214 187
332 326 349 357 348 338 340 340 342 329 322 318 316 314 311 302 289 284 270 264 247 254 262 243 231 214 195 195 184 185 183 177 185 188 164 188 174 192 206 197 195 182 179
328 328 342 350 345 336 338 338 341 328 325 322 319 318 316 308 302 284 272 265 241 241 243 254 246 200 195 192 186 188 189 186 187 175 167 182 181 196 198 195 186 173 180
327 328 344 343 342 337 340 341 341 330 326 324 325 323 319 318 317 290 268 247 239 232 231 230 235 240 199 197 197 191 184 171 133 159 163 165 182 179 180 152 163 169 185
323 333 347 341 343 336 342 345 342 335 331 326 328 328 330 331 328 328 259 249 264 267 248 216 219 208 123 91 96 128 166 167 155 168 173 148 174 150 155 152 175 180 187
325 342 344 340 339 332 335 342 340 337 332 333 331 336 335 340 345 355 309 247 259 206 155 132 118 113 112 96 80 70 123 196 158 138 173 160 152 140 148 152 163 174 206